N5RML-1 Weather Reports


time (UTC)temp
C
wind
direction
speed
KPH
gust
KPH
rain 1hr
cm
rain 24hr
cm
rain mn
cm
humidity
%
barometer
mb
20260510175536 28 105 6.4 9.7 0.00 0.66 0.03 70 1017.8
20260510174525 28 134 6.4 11.3 0.00 0.69 0.03 69 1017.9
20260510173536 28 115 6.4 11.3 0.00 0.71 0.03 68 1017.9
20260510172523 28 74 4.8 9.7 0.00 0.74 0.03 67 1018.0
20260510171530 28 155 6.4 9.7 0.00 0.81 0.03 68 1018.1
20260510170540 28 93 3.2 11.3 0.00 0.89 0.03 69 1018.2
20260510165529 27 157 4.8 11.3 0.00 1.02 0.03 69 1018.3
20260510164536 28 55 4.8 8.0 0.00 1.35 0.03 69 1018.2
20260510163525 27 46 4.8 9.7 0.00 1.50 0.03 71 1018.2
20260510162533 27 110 3.2 9.7 0.00 1.55 0.03 72 1018.3
20260510161525 26 151 6.4 9.7 0.00 1.60 0.03 73 1018.3
20260510160531 26 137 4.8 9.7 0.00 1.68 0.03 75 1018.2
20260510155522 26 154 6.4 11.3 0.00 1.78 0.03 73 1017.9
20260510154528 26 171 4.8 8.0 0.00 2.01 0.03 75 1017.9
20260510153537 26 118 4.8 9.7 0.00 2.18 0.03 76 1017.9
20260510152525 26 105 3.2 8.0 0.00 2.18 0.03 77 1018.0
20260510151535 25 121 4.8 9.7 0.00 2.18 0.03 80 1018.1
20260510150523 24 62 3.2 8.0 0.00 2.18 0.03 83 1018.2
20260510145531 24 96 3.2 8.0 0.00 2.21 0.03 83 1018.3
20260510144521 24 24 4.8 8.0 0.00 2.21 0.03 84 1018.3
20260510143549 24 103 4.8 9.7 0.00 2.21 0.03 85 1018.1
20260510142619 23 37 1.6 6.4 0.00 2.21 0.03 88 1018.2
20260510141526 23 99 3.2 8.0 0.00 2.24 0.03 88 1018.1
20260510140534 23 0.0 0.0 0.00 2.29 0.03 90 1018.0
20260510135523 22 180 0.0 4.8 0.00 2.36 0.03 92 1018.0
20260510134534 22 32 1.6 8.0 0.00 2.44 0.03 94 1018.1
20260510133521 21 0.0 0.0 0.00 2.84 0.03 95 1018.0
20260510132529 21 45 1.6 6.4 0.00 3.35 0.03 97 1017.9
20260510131537 21 45 1.6 3.2 0.00 4.17 0.03 97 1017.8
20260510130548 21 0.0 3.2 0.00 4.37 0.03 97 1017.5
20260510125534 21 90 1.6 8.0 0.00 4.37 0.03 97 1017.3
20260510124524 20 135 0.0 6.4 0.00 4.37 0.03 97 1017.3
20260510123554 20 0.0 6.4 0.00 4.37 0.03 97 1017.1
20260510122544 20 0.0 0.0 0.00 4.37 0.03 97 1016.9
20260510121550 20 0.0 0.0 0.00 4.37 0.03 97 1016.8
20260510120537 20 45 0.0 3.2 0.00 4.37 0.03 97 1016.7
20260510115527 20 45 0.0 3.2 0.00 4.37 0.03 97 1016.5
20260510114556 20 45 0.0 3.2 0.00 4.37 0.03 97 1016.4
20260510113524 20 60 0.0 1.6 0.00 4.37 0.03 97 1016.1
20260510112615 19 45 0.0 1.6 0.00 4.37 0.03 97 1016.0
20260510111523 19 0.0 0.0 0.00 4.37 0.03 97 1015.9
20260510110529 19 0.0 0.0 0.00 4.37 0.03 97 1015.8
20260510105522 19 0.0 0.0 0.00 4.37 0.03 97 1015.6
20260510104547 20 90 0.0 4.8 0.00 4.37 0.03 97 1015.3
20260510103535 20 0.0 0.0 0.00 4.37 0.03 97 1015.2
20260510102526 20 0.0 0.0 0.00 4.37 0.03 97 1015.0
20260510101533 20 0.0 1.6 0.00 4.37 0.03 97 1014.8
20260510100522 20 45 0.0 3.2 0.03 4.37 0.03 97 1014.7
20260510095530 20 45 0.0 4.8 0.03 4.37 0.03 97 1014.7
20260510094520 20 0.0 0.0 0.03 4.37 0.03 97 1014.7
20260510093529 20 0.0 0.0 0.03 4.37 0.03 96 1014.7
20260510092536 20 0.0 3.2 0.03 4.37 0.03 96 1014.6
20260510091525 20 353 0.0 3.2 0.03 4.37 0.03 96 1014.4
20260510090534 19 0 0.0 4.8 0.00 4.34 0.00 96 1014.4
20260510085523 19 0.0 0.0 0.00 4.34 0.00 96 1014.4
20260510084531 20 0.0 0.0 0.00 4.34 0.00 96 1014.5
20260510083521 20 0.0 0.0 0.00 4.34 0.00 96 1014.5
20260510082530 20 0.0 0.0 0.00 4.34 0.00 96 1014.6
20260510081537 19 0.0 0.0 0.00 4.34 0.00 96 1014.4
20260510080525 18 0.0 0.0 0.00 4.34 0.00 96 1014.1
20260510075533 18 0.0 0.0 0.00 4.34 0.00 95 1014.2
20260510074523 18 0.0 0.0 0.00 4.37 0.00 95 1014.2
20260510073531 18 0.0 0.0 0.00 4.37 0.00 95 1014.0
20260510072521 18 0.0 0.0 0.00 4.37 0.00 95 1013.9
20260510071548 18 0.0 0.0 0.00 4.37 0.00 95 1013.8
20260510070746 -17 0.0 0.0 0.00 4.37 0.00 1013.9
20260510070537 18 0.0 0.0 0.00 4.37 0.00 95 1014.0
20260510065526 18 0.0 0.0 0.00 4.37 0.00 95 1014.1
20260510064535 18 0.0 0.0 0.00 4.37 0.00 95 1014.1
20260510063524 18 0.0 0.0 0.00 4.37 0.00 95 1013.9
20260510062532 18 0.0 0.0 0.00 4.37 0.00 95 1013.9
20260510061542 18 0.0 0.0 0.00 4.37 0.00 95 1014.1
20260510060529 18 0.0 0.0 0.00 4.37 0.00 95 1014.1
20260510055558 19 0.0 0.0 0.00 4.37 0.00 95 1014.2
20260510054527 19 0.0 0.0 0.00 4.37 0.00 95 1014.1
20260510053535 19 0.0 0.0 0.00 4.37 0.00 95 1013.8
20260510052524 19 0.0 0.0 0.00 4.37 0.00 95 1014.0
20260510051532 20 0.0 0.0 0.00 4.37 0.00 95 1013.9
20260510050522 20 142 1.6 3.2 0.00 4.37 0.00 95 1014.1
20260510045530 20 149 3.2 6.4 0.00 4.37 4.37 95 1014.1
20260510044520 20 172 3.2 8.0 0.00 4.37 4.37 95 1014.1
20260510043528 20 144 3.2 8.0 0.00 4.37 4.37 95 1014.2
20260510042535 20 0.0 0.0 0.00 4.37 4.37 95 1014.5
20260510041524 20 119 1.6 4.8 0.00 4.37 4.37 95 1014.3
20260510040532 20 156 3.2 8.0 0.00 4.37 4.37 95 1014.2
20260510035523 20 149 4.8 8.0 0.00 4.37 4.37 95 1014.4
20260510034529 20 151 6.4 9.7 0.00 4.37 4.37 95 1014.5
20260510033520 20 141 3.2 8.0 0.00 4.37 4.37 95 1014.7
20260510032527 20 0.0 0.0 0.00 4.37 4.37 94 1014.7
20260510031535 20 0.0 0.0 0.00 4.37 4.37 94 1014.8
20260510030526 20 0.0 0.0 0.00 4.37 4.37 94 1014.8
20260510025533 20 0.0 0.0 0.00 4.37 4.37 94 1015.0
20260510024522 20 0.0 0.0 0.00 4.37 4.37 94 1014.9
20260510023531 20 0.0 0.0 0.00 4.37 4.37 94 1014.7
20260510022520 20 0.0 0.0 0.00 4.37 4.37 94 1014.5
20260510021527 20 0.0 0.0 0.00 4.37 4.37 94 1014.1
20260510020536 20 0.0 0.0 0.00 4.37 4.37 94 1014.1
20260510015526 20 0.0 0.0 0.00 4.37 4.37 94 1014.1
20260510014533 20 162 6.4 9.7 0.00 4.37 4.37 94 1014.1
20260510013525 20 153 6.4 9.7 0.00 4.37 4.37 94 1013.8
20260510012530 20 145 3.2 8.0 0.03 4.37 4.37 94 1013.9
20260510011540 20 127 3.2 6.4 0.03 4.37 4.37 94 1013.7
20260510010528 20 163 4.8 9.7 0.03 4.37 4.37 94 1013.7
20260510005536 20 156 4.8 9.7 0.03 4.37 4.37 94 1013.8
20260510004525 20 147 4.8 8.0 0.03 4.37 4.37 94 1013.8
20260510003553 20 141 4.8 8.0 0.03 4.37 4.37 94 1013.8
20260510002604 20 168 6.4 9.7 0.05 4.34 4.34 94 1013.8
20260510001530 20 154 3.2 6.4 0.08 4.34 4.34 94 1013.8
20260510000521 20 136 3.2 4.8 0.13 4.34 4.34 94 1013.6
20260509235528 20 145 4.8 8.0 0.13 4.34 4.34 94 1013.8
20260509234537 20 141 3.2 4.8 0.13 4.34 4.34 94 1013.6
20260509233525 20 158 1.6 8.0 0.13 4.34 4.34 94 1013.7
20260509232535 20 146 6.4 8.0 0.08 4.29 4.29 94 1014.2
20260509231522 20 149 4.8 8.0 0.05 4.27 4.27 93 1013.9
20260509230530 20 138 1.6 4.8 0.00 4.22 4.22 93 1014.0
20260509225541 20 154 3.2 6.4 0.03 4.22 4.22 93 1013.8
20260509224528 20 150 6.4 8.0 0.05 4.22 4.22 93 1013.6
20260509223537 21 158 3.2 4.8 0.05 4.24 4.22 93 1013.6
20260509222524 21 161 1.6 3.2 0.05 4.24 4.22 93 1013.0
20260509221533 21 170 0.0 3.2 0.05 4.27 4.22 93 1012.9
20260509220522 21 0.0 0.0 0.05 4.27 4.22 93 1013.0
20260509215530 21 0.0 0.0 0.03 4.29 4.19 92 1013.3
20260509214519 21 186 1.6 6.4 0.00 4.27 4.17 92 1013.6
20260509213528 20 147 4.8 8.0 0.00 4.27 4.17 92 1013.3
20260509212535 20 155 6.4 9.7 0.00 4.29 4.17 92 1012.7
20260509211525 20 149 8.0 12.9 0.00 4.34 4.17 92 1012.7
20260509210532 21 156 4.8 8.0 0.03 4.52 4.17 92 1012.7
20260509205523 21 161 4.8 11.3 0.05 4.60 4.17 93 1012.6
20260509204530 20 147 6.4 11.3 0.10 4.83 4.17 93 1012.8
20260509203522 20 142 3.2 6.4 0.13 5.23 4.17 94 1012.8
20260509202609 20 0.0 0.0 0.15 5.46 4.17 94 1013.2
20260509201539 20 0.0 0.0 0.20 5.46 4.17 94 1013.8
20260509200626 20 160 3.2 8.0 0.20 5.44 4.14 94 1014.1
20260509195533 20 158 0.0 4.8 0.20 5.41 4.11 94 1014.0
20260509194523 20 158 1.6 4.8 0.18 5.36 4.06 95 1013.9
20260509193530 20 0.0 0.0 0.18 5.33 4.04 95 1014.0
20260509192522 20 0.0 0.0 0.20 5.31 4.01 95 1014.4
20260509191529 20 0.0 0.0 0.18 5.26 3.96 95 1014.7
20260509190537 20 158 0.0 1.6 0.18 5.23 3.94 95 1014.7
20260509185525 20 113 0.0 3.2 0.18 5.21 3.91 95 1014.4
20260509184533 20 135 0.0 1.6 0.18 5.18 3.89 95 1014.4
20260509183524 19 155 3.2 8.0 0.18 5.16 3.86 95 1014.1
20260509182531 19 143 3.2 9.7 0.15 5.11 3.81 95 1014.3
20260509181520 19 174 4.8 9.7 0.20 5.08 3.78 95 1014.1
20260509180528 19 147 1.6 6.4 0.25 5.05 3.76 95 1014.5